Cas;Teplota [C];Tlak [hPa];Svetlo [lux];Rychlost vetru [km/h];Smer vetru [stupne]
2019-12-05 00:00:01;-2.22;1024.46;6;0;0
2019-12-05 00:00:31;-2.35;1024.46;7;0;0
2019-12-05 00:01:01;-2.33;1024.46;8;0;0
2019-12-05 00:01:31;-2.24;1024.45;7;0;0
2019-12-05 00:02:01;-2.24;1024.47;6;0;0
2019-12-05 00:02:31;-2.37;1024.47;6;0;0
2019-12-05 00:03:01;-2.26;1024.48;6;0;0
2019-12-05 00:03:31;-2.32;1024.47;6;0;0
2019-12-05 00:04:01;-2.43;1024.5;7;0;0
2019-12-05 00:04:31;-2.36;1024.5;7;0;0
2019-12-05 00:05:01;-2.36;1024.49;6;0;0
2019-12-05 00:05:31;-2.47;1024.51;7;0;0
2019-12-05 00:06:01;-2.27;1024.49;7;0;0
2019-12-05 00:06:31;-2.17;1024.48;6;0;0
2019-12-05 00:07:01;-2.14;1024.48;6;0;0
2019-12-05 00:07:32;-2.17;1024.49;7;0;0
2019-12-05 00:08:01;-2.16;1024.48;7;0;0
2019-12-05 00:08:31;-2.2;1024.47;6;0;0
2019-12-05 00:09:01;-2.28;1024.47;7;0;0
2019-12-05 00:09:31;-2.23;1024.43;7;0;0
2019-12-05 00:10:01;-2.29;1024.44;6;0;0
2019-12-05 00:10:31;-2.24;1024.42;7;0;0
2019-12-05 00:11:01;-2.22;1024.43;8;0;0
2019-12-05 00:11:31;-2.09;1024.45;7;0;0
2019-12-05 00:12:01;-2.2;1024.44;8;0;0
2019-12-05 00:12:31;-2.19;1024.41;6;0;0
2019-12-05 00:13:01;-2.2;1024.39;6;0;0
2019-12-05 00:13:31;-2.18;1024.39;6;0;0
2019-12-05 00:14:01;-2.17;1024.4;7;0;0
2019-12-05 00:14:31;-2.06;1024.42;6;0;0
2019-12-05 00:15:01;-2.1;1024.42;7;0;0
2019-12-05 00:15:31;-2.17;1024.43;7;0;0
2019-12-05 00:16:01;-2.14;1024.42;6;0;0
2019-12-05 00:16:31;-2.15;1024.44;6;0;0
2019-12-05 00:17:01;-2.18;1024.43;7;0;0
2019-12-05 00:17:32;-2.25;1024.43;6;0;0
2019-12-05 00:18:01;-2.24;1024.42;7;0;0
2019-12-05 00:18:31;-2.15;1024.41;7;0;0
2019-12-05 00:19:01;-2.03;1024.4;7;0;0
2019-12-05 00:19:31;-2.12;1024.38;6;0;0
2019-12-05 00:20:01;-2.21;1024.37;6;0;0
2019-12-05 00:20:31;-2.22;1024.35;7;0;0
2019-12-05 00:21:01;-2;1024.34;6;0;0
2019-12-05 00:21:31;-2.11;1024.33;6;0;0
2019-12-05 00:22:01;-2.12;1024.34;7;0;0
2019-12-05 00:22:31;-2.15;1024.36;7;0;0
2019-12-05 00:23:01;-2.17;1024.36;6;0;0
2019-12-05 00:23:31;-2.21;1024.37;6;0;0
2019-12-05 00:24:01;-2.1;1024.36;7;0;0
2019-12-05 00:24:31;-2.13;1024.38;6;0;0
2019-12-05 00:25:01;-1.98;1024.37;6;0;0
2019-12-05 00:25:31;-2.16;1024.39;6;0;0
2019-12-05 00:26:01;-2.23;1024.37;6;0;0
2019-12-05 00:26:31;-2.18;1024.39;6;0;0
2019-12-05 00:27:01;-2.18;1024.41;7;0;0
2019-12-05 00:27:32;-2.35;1024.39;7;0;0
2019-12-05 00:28:01;-2.32;1024.36;6;0;0
2019-12-05 00:28:31;-2.27;1024.35;7;0;0
2019-12-05 00:29:01;-2.12;1024.38;6;0;0
2019-12-05 00:29:31;-2.19;1024.39;5;0;0
2019-12-05 00:30:01;-2.06;1024.42;6;0;0
2019-12-05 00:30:31;-2.1;1024.36;7;0;0
2019-12-05 00:31:01;-2.35;1024.39;7;0;0
2019-12-05 00:31:31;-2.24;1024.42;7;0;0
2019-12-05 00:32:01;-2.21;1024.43;6;0;0
2019-12-05 00:32:31;-2.17;1024.39;6;0;0
2019-12-05 00:33:01;-2.11;1024.41;7;0;0
2019-12-05 00:33:31;-2.12;1024.4;7;0;0
2019-12-05 00:34:01;-2.11;1024.41;7;0;0
2019-12-05 00:34:31;-2.19;1024.4;8;0;0
2019-12-05 00:35:01;-2.15;1024.42;6;0;0
2019-12-05 00:35:32;-2.23;1024.38;8;0;0
2019-12-05 00:36:01;-2.27;1024.39;7;0;0
2019-12-05 00:36:31;-2.15;1024.37;7;0;0
2019-12-05 00:37:01;-2.14;1024.41;7;0;0
2019-12-05 00:37:31;-2.3;1024.37;7;0;0
2019-12-05 00:38:01;-2.26;1024.38;7;0;0
2019-12-05 00:38:31;-2.3;1024.37;7;0;0
2019-12-05 00:39:01;-2.27;1024.38;7;0;0
2019-12-05 00:39:31;-2.26;1024.38;6;0;0
2019-12-05 00:40:01;-2.32;1024.39;6;0;0
2019-12-05 00:40:31;-2.42;1024.37;7;0;0
2019-12-05 00:41:01;-2.3;1024.39;6;0;0
2019-12-05 00:41:31;-2.19;1024.4;6;0;0
2019-12-05 00:42:01;-2.32;1024.39;7;0;0
2019-12-05 00:42:31;-2.41;1024.37;6;0;0
2019-12-05 00:43:01;-2.39;1024.36;8;0;0
2019-12-05 00:43:31;-2.28;1024.37;6;0;0
2019-12-05 00:44:01;-2.35;1024.27;6;0;0
2019-12-05 00:44:32;-2.42;1024.27;7;0;0
2019-12-05 00:45:01;-2.29;1024.31;6;0;0
2019-12-05 00:45:31;-2.32;1024.28;6;0;0
2019-12-05 00:46:01;-2.29;1024.29;7;0;0
2019-12-05 00:46:31;-2.34;1024.27;7;0;0
2019-12-05 00:47:01;-2.25;1024.29;7;0;0
2019-12-05 00:47:31;-2.17;1024.28;6;0;0
2019-12-05 00:48:01;-2.26;1024.26;7;0;0
2019-12-05 00:48:31;-2.22;1024.29;8;0;0
2019-12-05 00:49:01;-2.23;1024.25;7;0;0
2019-12-05 00:49:31;-2.16;1024.3;7;0;0
2019-12-05 00:50:01;-2.34;1024.29;7;0;0
2019-12-05 00:50:31;-2.25;1024.31;8;0;0
2019-12-05 00:51:01;-2.29;1024.3;8;0;0
2019-12-05 00:51:31;-2.36;1024.3;7;0;0
2019-12-05 00:52:01;-2.25;1024.35;8;0;0
2019-12-05 00:52:31;-2.21;1024.35;7;0;0
2019-12-05 00:53:01;-2.21;1024.36;7;0;0
2019-12-05 00:53:32;-2.24;1024.38;6;0;0
2019-12-05 00:54:01;-2.27;1024.4;8;0;0
2019-12-05 00:54:31;-2.34;1024.39;7;0;0
2019-12-05 00:55:01;-2.21;1024.38;7;0;0
2019-12-05 00:55:31;-2.17;1024.37;7;0;0
2019-12-05 00:56:01;-2.27;1024.36;7;0;0
2019-12-05 00:56:31;-2.22;1024.35;6;0;0
2019-12-05 00:57:02;-2.17;1024.37;8;0;0
2019-12-05 00:57:31;-2.17;1024.33;7;0;0
2019-12-05 00:58:01;-2.25;1024.33;7;0;0
2019-12-05 00:58:31;-2.32;1024.35;7;0;0
2019-12-05 00:59:01;-2.11;1024.36;7;0;0
2019-12-05 00:59:31;-2.05;1024.32;7;0;0
2019-12-05 01:00:01;-2.22;1024.33;6;0;0
2019-12-05 01:00:31;-2.18;1024.36;7;0;0
2019-12-05 01:01:01;-2.17;1024.33;7;0;0
2019-12-05 01:01:31;-2.23;1024.33;7;0;0
2019-12-05 01:02:02;-2.18;1024.32;7;0;0
2019-12-05 01:02:32;-2.19;1024.29;7;0;0
2019-12-05 01:03:01;-2.19;1024.28;8;0;0
2019-12-05 01:03:31;-2.24;1024.32;7;0;0
2019-12-05 01:04:01;-2.3;1024.32;7;0;0
2019-12-05 01:04:31;-2.26;1024.3;7;0;0
2019-12-05 01:05:01;-2.3;1024.3;6;0;0
2019-12-05 01:05:31;-2.4;1024.33;6;0;0
2019-12-05 01:06:01;-2.25;1024.29;7;0;0
2019-12-05 01:06:31;-2.16;1024.34;7;0;0
2019-12-05 01:07:01;-2.21;1024.29;7;0;0
2019-12-05 01:07:31;-2.34;1024.29;7;0;0
2019-12-05 01:08:01;-2.16;1024.3;7;0;0
2019-12-05 01:08:31;-2.33;1024.21;7;0;0
2019-12-05 01:09:01;-2.4;1024.18;7;0;0
2019-12-05 01:09:31;-2.2;1024.22;7;0;0
2019-12-05 01:10:01;-2.1;1024.29;7;0;0
2019-12-05 01:10:31;-2.11;1024.28;7;0;0
2019-12-05 01:11:01;-2.13;1024.26;6;0;0
2019-12-05 01:11:31;-2.1;1024.26;7;0;0
2019-12-05 01:12:01;-1.85;1024.21;7;0;0
2019-12-05 01:12:32;-1.98;1024.18;6;0;0
2019-12-05 01:13:01;-1.9;1024.21;6;0;0
2019-12-05 01:13:31;-2.01;1024.16;6;0;0
2019-12-05 01:14:01;-1.95;1024.18;8;0;0
2019-12-05 01:14:31;-2.16;1024.17;8;0;0
2019-12-05 01:15:01;-2.13;1024.2;8;0;0
2019-12-05 01:15:31;-2.05;1024.17;7;0;0
2019-12-05 01:16:01;-1.96;1024.11;7;0;0
2019-12-05 01:16:31;-2.03;1024.1;8;0;0
2019-12-05 01:17:01;-2.1;1024.15;7;0;0
2019-12-05 01:17:31;-2.18;1024.15;7;0;0
2019-12-05 01:18:02;-2.02;1024.19;7;0;0
2019-12-05 01:18:31;-2.01;1024.16;8;0;0
2019-12-05 01:19:01;-2.05;1024.19;8;0;0
2019-12-05 01:19:31;-1.95;1024.1;8;0;0
2019-12-05 01:20:01;-1.84;1024.08;8;0;0
2019-12-05 01:20:31;-1.91;1024.06;7;0;0
2019-12-05 01:21:01;-1.88;1024.04;8;0;0
2019-12-05 01:21:31;-2.07;1024.11;7;0;0
2019-12-05 01:22:01;-2.04;1024.06;7;0;0
2019-12-05 01:22:32;-2.05;1024.1;7;0;0
2019-12-05 01:23:02;-2;1024.08;6;0;0
2019-12-05 01:23:31;-2;1024.1;7;0;0
2019-12-05 01:24:01;-2.02;1024.09;8;0;0
2019-12-05 01:24:31;-1.89;1024.13;7;0;0
2019-12-05 01:25:02;-1.96;1024.18;8;0;0
2019-12-05 01:25:31;-1.98;1024.15;7;0;0
2019-12-05 01:26:01;-1.97;1024.17;8;0;0
2019-12-05 01:26:31;-2.04;1024.21;7;0;0
2019-12-05 01:27:01;-2.2;1024.21;7;0;0
2019-12-05 01:27:31;-2.08;1024.16;8;0;0
2019-12-05 01:28:01;-1.94;1024.16;6;0;0
2019-12-05 01:28:31;-2.07;1024.13;7;0;0
2019-12-05 01:29:01;-2;1024.13;7;0;0
2019-12-05 01:29:31;-1.95;1024.11;7;0;0
2019-12-05 01:30:01;-1.97;1024.16;7;0;0
2019-12-05 01:30:31;-1.96;1024.18;6;0;0
2019-12-05 01:31:01;-1.79;1024.15;7;0;0
2019-12-05 01:31:31;-1.87;1024.11;7;0;0
2019-12-05 01:32:01;-1.95;1024.12;8;0;0
2019-12-05 01:32:31;-2.02;1024.15;7;0;0
2019-12-05 01:33:02;-1.89;1024.17;7;0;0
2019-12-05 01:33:31;-2.01;1024.19;7;0;0
2019-12-05 01:34:01;-1.83;1024.12;7;0;0
2019-12-05 01:34:31;-1.79;1024.08;7;0;0
2019-12-05 01:35:01;-1.72;1024.06;7;0;0
2019-12-05 01:35:31;-1.81;1024.04;7;0;0
2019-12-05 01:36:01;-1.83;1024.04;8;0;0
2019-12-05 01:36:31;-1.81;1024.03;8;0;0
2019-12-05 01:37:01;-1.83;1023.97;7;0;0
2019-12-05 01:37:31;-1.77;1024;7;0;0
2019-12-05 01:38:01;-1.67;1023.94;7;0;0
2019-12-05 01:38:31;-1.82;1023.94;7;0;0
2019-12-05 01:39:01;-1.83;1023.95;6;0;0
2019-12-05 01:39:31;-1.69;1023.96;8;0;0
2019-12-05 01:40:01;-1.72;1023.97;7;0;0
2019-12-05 01:40:31;-1.72;1024;8;0;0
2019-12-05 01:41:01;-1.82;1024.06;8;0;0
2019-12-05 01:41:31;-1.75;1023.97;9;0;0
2019-12-05 01:42:01;-1.55;1023.93;9;0;0
2019-12-05 01:42:31;-1.63;1023.9;6;0;0
2019-12-05 01:43:01;-1.8;1023.95;6;0;0
2019-12-05 01:43:32;-1.76;1023.92;7;0;0
2019-12-05 01:44:01;-1.7;1023.91;7;0;0
2019-12-05 01:44:31;-1.75;1023.88;6;0;0
2019-12-05 01:45:01;-1.8;1023.95;6;0;0
2019-12-05 01:45:31;-1.85;1024.01;7;0;0
2019-12-05 01:46:01;-1.72;1023.95;7;0;0
2019-12-05 01:46:31;-1.82;1023.98;7;0;0
2019-12-05 01:47:01;-1.85;1024.01;7;0;0
2019-12-05 01:47:31;-1.85;1023.96;9;0;0
2019-12-05 01:48:01;-1.86;1024.02;7;0;0
2019-12-05 01:48:31;-1.79;1024.06;6;0;0
2019-12-05 01:49:02;-1.77;1023.99;8;0;0
2019-12-05 01:49:31;-1.85;1024.03;8;0;0
2019-12-05 01:50:01;-1.82;1024.05;8;0;0
2019-12-05 01:50:31;-1.88;1024.06;8;0;0
2019-12-05 01:51:01;-1.73;1024.1;6;0;0
2019-12-05 01:51:31;-1.86;1024.1;7;0;0
2019-12-05 01:52:01;-1.87;1024.16;8;0;0
2019-12-05 01:52:31;-1.92;1024.13;6;0;0
2019-12-05 01:53:01;-2.04;1024.08;8;0;0
2019-12-05 01:53:32;-1.89;1024.13;6;0;0
2019-12-05 01:54:01;-1.84;1024.09;7;0;0
2019-12-05 01:54:31;-1.88;1024.12;8;0;0
2019-12-05 01:55:01;-1.93;1024.08;8;0;0
2019-12-05 01:55:31;-1.96;1024.08;7;0;0
2019-12-05 01:56:01;-1.99;1024.09;7;0;0
2019-12-05 01:56:31;-1.86;1024.11;8;0;0
2019-12-05 01:57:02;-1.89;1024.11;8;0;0
2019-12-05 01:57:31;-2.07;1024.12;6;0;0
2019-12-05 01:58:02;-1.98;1024.13;9;0;0
2019-12-05 01:58:31;-1.9;1024.15;8;0;0
2019-12-05 01:59:01;-1.91;1024.17;8;0;0
2019-12-05 01:59:31;-1.85;1024.11;8;0;0
2019-12-05 02:00:01;-1.79;1024.14;8;0;0
2019-12-05 02:00:31;-1.78;1024.14;8;0;0
2019-12-05 02:01:01;-1.8;1024.07;7;0;0
2019-12-05 02:01:31;-1.94;1024.09;7;0;0
2019-12-05 02:02:01;-1.88;1024.18;7;0;0
2019-12-05 02:02:31;-1.73;1024.11;8;0;0
2019-12-05 02:03:02;-1.64;1024.08;8;0;0
2019-12-05 02:03:32;-1.71;1024.08;8;0;0
2019-12-05 02:04:01;-1.73;1024.1;8;0;0
2019-12-05 02:04:31;-1.87;1024.12;7;0;0
2019-12-05 02:05:01;-1.84;1024.13;8;0;0
2019-12-05 02:05:31;-1.86;1024.08;7;0;0
2019-12-05 02:06:01;-1.8;1024.08;6;0;0
2019-12-05 02:06:31;-1.67;1024.11;7;0;0
2019-12-05 02:07:01;-1.61;1024.12;7;0;0
2019-12-05 02:07:31;-1.59;1024.07;8;0;0
2019-12-05 02:08:01;-1.61;1024.12;8;0;0
2019-12-05 02:08:31;-1.73;1024.13;7;0;0
2019-12-05 02:09:01;-1.61;1024.15;7;0;0
2019-12-05 02:09:31;-1.7;1024.14;7;0;0
2019-12-05 02:10:01;-1.6;1024.13;7;0;0
2019-12-05 02:10:32;-1.69;1024.09;7;0;0
2019-12-05 02:11:01;-1.73;1024.08;8;0;0
2019-12-05 02:11:31;-1.74;1024.07;6;0;0
2019-12-05 02:12:01;-1.78;1024.1;7;0;0
2019-12-05 02:12:31;-1.59;1024.1;8;0;0
2019-12-05 02:13:01;-1.61;1024.17;7;0;0
2019-12-05 02:13:31;-1.57;1024.17;7;2.73;319
2019-12-05 02:14:01;-1.57;1024.1;8;0;0
2019-12-05 02:14:31;-1.65;1024.12;8;0;0
2019-12-05 02:15:01;-1.75;1024.1;8;0;0
2019-12-05 02:15:31;-1.89;1024.12;8;0;0
2019-12-05 02:16:01;-1.74;1024.12;8;0;0
2019-12-05 02:16:31;-1.78;1024.08;8;0;0
2019-12-05 02:17:01;-1.85;1024.12;7;0;0
2019-12-05 02:17:31;-1.66;1024.06;6;0;0
2019-12-05 02:18:01;-1.66;1024.09;7;0;0
2019-12-05 02:18:31;-1.78;1024.09;7;0;0
2019-12-05 02:19:02;-1.83;1024.13;7;0;0
2019-12-05 02:19:32;-1.67;1024.11;8;0;0
2019-12-05 02:20:01;-1.67;1024.11;9;0;0
2019-12-05 02:20:31;-1.68;1024.09;8;0;0
2019-12-05 02:21:01;-1.81;1024.15;7;0;0
2019-12-05 02:21:31;-1.76;1024.15;8;0;0
2019-12-05 02:22:01;-1.7;1024.18;8;0;0
2019-12-05 02:22:31;-1.76;1024.16;6;0;0
2019-12-05 02:23:01;-1.77;1024.15;7;0;0
2019-12-05 02:23:31;-1.7;1024.13;8;0;0
2019-12-05 02:24:01;-1.82;1024.13;7;0;0
2019-12-05 02:24:31;-1.7;1024.17;6;0;0
2019-12-05 02:25:01;-1.73;1024.14;7;0;0
2019-12-05 02:25:31;-1.79;1024.1;6;0;0
2019-12-05 02:26:01;-1.73;1024.16;6;0;0
2019-12-05 02:26:31;-1.65;1024.12;8;0;0
2019-12-05 02:27:01;-1.66;1024.08;8;0;0
2019-12-05 02:27:31;-1.58;1024.04;9;0;0
2019-12-05 02:28:01;-1.73;1024.06;7;0;0
2019-12-05 02:28:31;-1.72;1024.09;6;0;0
2019-12-05 02:29:01;-1.8;1024.1;8;0;0
2019-12-05 02:29:31;-1.75;1023.99;8;0;0
2019-12-05 02:30:01;-1.63;1024.02;9;0;0
2019-12-05 02:30:31;-1.72;1024.07;8;0;0
2019-12-05 02:31:01;-1.73;1024.06;7;0;0
2019-12-05 02:31:31;-1.79;1024.1;7;0;0
2019-12-05 02:32:01;-1.8;1024.2;7;0;0
2019-12-05 02:32:31;-1.76;1024.12;7;0;0
2019-12-05 02:33:01;-1.77;1024.15;7;0;0
2019-12-05 02:33:31;-1.73;1024.13;7;0;0
2019-12-05 02:34:02;-1.7;1024.08;6;0;0
2019-12-05 02:34:31;-1.7;1024.12;7;0;0
2019-12-05 02:35:01;-1.8;1024.08;7;0;0
2019-12-05 02:35:31;-1.87;1024.06;7;0;0
2019-12-05 02:36:01;-1.9;1024.11;7;0;0
2019-12-05 02:36:31;-1.92;1024.12;8;0;0
2019-12-05 02:37:01;-1.9;1024.21;7;0;0
2019-12-05 02:37:31;-1.82;1024.14;7;0;0
2019-12-05 02:38:01;-1.95;1024.15;8;0;0
2019-12-05 02:38:32;-1.83;1024.17;8;0;0
2019-12-05 02:39:01;-1.81;1024.18;8;0;0
2019-12-05 02:39:31;-1.82;1024.16;7;0;0
2019-12-05 02:40:01;-1.92;1024.11;8;0;0
2019-12-05 02:40:31;-1.98;1024.12;8;0;0
2019-12-05 02:41:01;-1.84;1024.17;8;0;0
2019-12-05 02:41:31;-1.84;1024.2;8;0;0
2019-12-05 02:42:01;-1.87;1024.16;8;0;0
2019-12-05 02:42:31;-2.01;1024.2;8;0;0
2019-12-05 02:43:01;-2;1024.15;7;0;0
2019-12-05 02:43:31;-2.07;1024.15;7;0;0
2019-12-05 02:44:01;-2.01;1024.15;7;0;0
2019-12-05 02:44:31;-2.05;1024.13;8;0;0
2019-12-05 02:45:01;-1.97;1024.1;7;0;0
2019-12-05 02:45:31;-1.97;1024.09;6;0;0
2019-12-05 02:46:01;-2.1;1024.08;8;0;0
2019-12-05 02:46:31;-1.98;1024.04;8;0;0
2019-12-05 02:47:02;-2;1024.07;8;0;0
2019-12-05 02:47:32;-2.07;1024.02;7;0;0
2019-12-05 02:48:01;-1.99;1024.03;6;0;0
2019-12-05 02:48:31;-2.07;1024.04;7;0;0
2019-12-05 02:49:01;-2.05;1024.04;8;0;0
2019-12-05 02:49:31;-2.13;1024.08;7;0;0
2019-12-05 02:50:01;-2.04;1024.03;8;0;0
2019-12-05 02:50:31;-2.06;1024.06;8;0;0
2019-12-05 02:51:01;-2.12;1024.01;8;0;0
2019-12-05 02:51:31;-2.25;1024.01;7;0;0
2019-12-05 02:52:01;-2.15;1024.07;7;0;0
2019-12-05 02:52:31;-2.12;1024.01;7;0;0
2019-12-05 02:53:01;-2.17;1023.96;8;0;0
2019-12-05 02:53:31;-2.09;1023.97;8;0;0
2019-12-05 02:54:01;-2.01;1023.98;7;0;0
2019-12-05 02:54:31;-1.96;1023.95;8;0;0
2019-12-05 02:55:01;-2.06;1024.06;8;0;0
2019-12-05 02:55:31;-1.9;1024.01;7;0;0
2019-12-05 02:56:01;-2.05;1024.07;7;0;0
2019-12-05 02:56:31;-1.97;1024.02;8;0;0
2019-12-05 02:57:01;-1.89;1023.99;8;0;0
2019-12-05 02:57:31;-1.93;1023.99;7;0;0
2019-12-05 02:58:02;-2.08;1023.99;8;0;0
2019-12-05 02:58:31;-2.03;1024.02;8;0;0
2019-12-05 02:59:02;-1.9;1023.99;7;0;0
2019-12-05 02:59:31;-1.89;1023.96;7;0;0
2019-12-05 03:00:01;-1.93;1023.95;6;0;0
2019-12-05 03:00:31;-2.05;1023.96;8;0;0
2019-12-05 03:01:01;-1.89;1023.94;7;0;0
2019-12-05 03:01:32;-1.87;1023.92;7;0;0
2019-12-05 03:02:01;-1.84;1023.9;8;0;0
2019-12-05 03:02:31;-1.91;1023.86;8;0;0
2019-12-05 03:03:01;-1.94;1023.87;8;0;0
2019-12-05 03:03:31;-1.88;1023.85;8;0;0
2019-12-05 03:04:01;-1.9;1023.89;8;0;0
2019-12-05 03:04:31;-1.97;1023.88;8;0;0
2019-12-05 03:05:01;-1.99;1023.83;8;0;0
2019-12-05 03:05:31;-2;1023.81;8;0;0
2019-12-05 03:06:01;-1.92;1023.78;8;0;0
2019-12-05 03:06:31;-1.95;1023.83;8;0;0
2019-12-05 03:07:01;-2.03;1023.87;6;0;0
2019-12-05 03:07:31;-2;1023.88;6;0;0
2019-12-05 03:08:01;-2.07;1023.88;6;0;0
2019-12-05 03:08:31;-1.95;1023.83;7;0;0
2019-12-05 03:09:01;-1.98;1023.77;7;0;0
2019-12-05 03:09:31;-1.99;1023.76;7;0;0
2019-12-05 03:10:02;-2.08;1023.8;6;0;0
2019-12-05 03:10:31;-2.05;1023.78;7;0;0
2019-12-05 03:11:01;-1.96;1023.8;8;0;0
2019-12-05 03:11:32;-2;1023.85;8;0;0
2019-12-05 03:12:01;-2.18;1023.82;7;0;0
2019-12-05 03:12:31;-2.1;1023.8;6;0;0
2019-12-05 03:13:01;-2.11;1023.83;6;0;0
2019-12-05 03:13:31;-2.19;1023.79;7;0;0
2019-12-05 03:14:01;-2.07;1023.78;7;0;0
2019-12-05 03:14:31;-2.16;1023.8;9;0;0
2019-12-05 03:15:01;-2.17;1023.72;7;0;0
2019-12-05 03:15:31;-2.12;1023.7;8;0;0
2019-12-05 03:16:01;-2.16;1023.68;7;0;0
2019-12-05 03:16:31;-2.15;1023.65;8;0;0
2019-12-05 03:17:01;-2.15;1023.69;8;0;0
2019-12-05 03:17:31;-2.03;1023.71;8;0;0
2019-12-05 03:18:01;-2.06;1023.7;9;0;0
2019-12-05 03:18:31;-2.22;1023.76;10;0;0
2019-12-05 03:19:01;-2.02;1023.75;9;0;0
2019-12-05 03:19:31;-2.13;1023.74;8;0;0
2019-12-05 03:20:01;-2.22;1023.73;7;0;0
2019-12-05 03:20:32;-2.28;1023.75;7;0;0
2019-12-05 03:21:01;-2.13;1023.71;6;0;0
2019-12-05 03:21:31;-2.18;1023.65;6;0;0
2019-12-05 03:22:02;-2.27;1023.65;6;0;0
2019-12-05 03:22:31;-2.19;1023.64;7;0;0
2019-12-05 03:23:01;-2.22;1023.62;7;0;0
2019-12-05 03:23:31;-2.15;1023.64;7;0;0
2019-12-05 03:24:01;-2.08;1023.64;7;0;0
2019-12-05 03:24:31;-2.03;1023.68;7;0;0
2019-12-05 03:25:01;-2.2;1023.61;7;0;0
2019-12-05 03:25:31;-2.15;1023.63;7;0;0
2019-12-05 03:26:01;-2.25;1023.6;6;0;0
2019-12-05 03:26:31;-2.24;1023.6;7;0;0
2019-12-05 03:27:01;-2.19;1023.6;7;0;0
2019-12-05 03:27:31;-2.16;1023.67;8;0;0
2019-12-05 03:28:01;-2.12;1023.67;9;0;0
2019-12-05 03:28:31;-2.2;1023.67;8;0;0
2019-12-05 03:29:01;-2.4;1023.63;7;0;0
2019-12-05 03:29:31;-2.26;1023.64;7;0;0
2019-12-05 03:30:01;-2.12;1023.62;8;0;0
2019-12-05 03:30:31;-2.1;1023.62;7;0;0
2019-12-05 03:31:01;-2.2;1023.66;7;0;0
2019-12-05 03:31:31;-2.27;1023.65;7;0;0
2019-12-05 03:32:01;-2.33;1023.62;7;0;0
2019-12-05 03:32:31;-2.21;1023.64;7;0;0
2019-12-05 03:33:01;-2.28;1023.61;7;0;0
2019-12-05 03:33:31;-2.28;1023.59;7;0;0
2019-12-05 03:34:01;-2.25;1023.57;7;0;0
2019-12-05 03:34:31;-2.29;1023.56;7;0;0
2019-12-05 03:35:01;-2.29;1023.56;7;0;0
2019-12-05 03:35:31;-2.34;1023.55;8;0;0
2019-12-05 03:36:01;-2.25;1023.58;8;0;0
2019-12-05 03:36:31;-2.32;1023.58;8;0;0
2019-12-05 03:37:02;-2.27;1023.56;8;0;0
2019-12-05 03:37:31;-2.26;1023.62;8;0;0
2019-12-05 03:38:01;-2.3;1023.66;8;0;0
2019-12-05 03:38:32;-2.31;1023.65;7;0;0
2019-12-05 03:39:01;-2.3;1023.64;7;0;0
2019-12-05 03:39:31;-2.48;1023.64;7;0;0
2019-12-05 03:40:02;-2.43;1023.63;7;0;0
2019-12-05 03:40:31;-2.41;1023.61;7;0;0
2019-12-05 03:41:01;-2.41;1023.6;7;0;0
2019-12-05 03:41:31;-2.53;1023.65;8;0;0
2019-12-05 03:42:01;-2.53;1023.65;7;0;0
2019-12-05 03:42:31;-2.49;1023.66;7;0;0
2019-12-05 03:43:01;-2.43;1023.64;8;0;0
2019-12-05 03:43:31;-2.44;1023.62;8;0;0
2019-12-05 03:44:01;-2.42;1023.63;7;0;0
2019-12-05 03:44:31;-2.59;1023.61;7;0;0
2019-12-05 03:45:01;-2.62;1023.63;7;0;0
2019-12-05 03:45:31;-2.56;1023.59;8;0;0
2019-12-05 03:46:01;-2.62;1023.58;8;0;0
2019-12-05 03:46:31;-2.56;1023.59;8;0;0
2019-12-05 03:47:01;-2.63;1023.6;8;0;0
2019-12-05 03:47:31;-2.71;1023.59;8;0;0
2019-12-05 03:48:01;-2.69;1023.57;8;0;0
2019-12-05 03:48:32;-2.76;1023.56;8;0;0
2019-12-05 03:49:01;-2.65;1023.56;7;0;0
2019-12-05 03:49:31;-2.75;1023.54;7;0;0
2019-12-05 03:50:01;-2.56;1023.57;8;0;0
2019-12-05 03:50:31;-2.64;1023.59;8;0;0
2019-12-05 03:51:02;-2.73;1023.59;7;0;0
2019-12-05 03:51:31;-2.83;1023.68;6;0;0
2019-12-05 03:52:01;-2.83;1023.67;7;0;0
2019-12-05 03:52:31;-2.77;1023.68;8;0;0
2019-12-05 03:53:01;-2.77;1023.68;7;0;0
2019-12-05 03:53:31;-2.6;1023.66;7;0;0
2019-12-05 03:54:01;-2.43;1023.66;7;0;0
2019-12-05 03:54:31;-2.53;1023.65;6;0;0
2019-12-05 03:55:01;-2.57;1023.69;6;0;0
2019-12-05 03:55:31;-2.58;1023.8;5;0;0
2019-12-05 03:56:01;-2.47;1023.73;6;0;0
2019-12-05 03:56:31;-2.56;1023.77;7;0;0
2019-12-05 03:57:01;-2.54;1023.81;8;0;0
2019-12-05 03:57:31;-2.42;1023.86;8;0;0
2019-12-05 03:58:01;-2.42;1023.81;8;0;0
2019-12-05 03:58:31;-2.52;1023.79;8;0;0
2019-12-05 03:59:01;-2.58;1023.79;6;0;0
2019-12-05 03:59:31;-2.44;1023.86;7;0;0
2019-12-05 04:00:01;-2.43;1023.8;7;0;0
2019-12-05 04:00:31;-2.52;1023.81;7;0;0
2019-12-05 04:01:01;-2.46;1023.86;7;0;0
2019-12-05 04:01:31;-2.46;1023.83;8;0;0
2019-12-05 04:02:01;-2.56;1023.79;8;0;0
2019-12-05 04:02:31;-2.42;1023.84;8;0;0
2019-12-05 04:03:01;-2.4;1023.8;7;0;0
2019-12-05 04:03:31;-2.31;1023.76;7;0;0
2019-12-05 04:04:01;-2.43;1023.74;8;0;0
2019-12-05 04:04:31;-2.34;1023.69;8;0;0
2019-12-05 04:05:01;-2.43;1023.63;6;0;0
2019-12-05 04:05:31;-2.57;1023.63;6;0;0
2019-12-05 04:06:01;-2.61;1023.63;6;0;0
2019-12-05 04:06:31;-2.41;1023.67;8;0;0
2019-12-05 04:07:01;-2.4;1023.65;7;0;0
2019-12-05 04:07:31;-2.44;1023.71;8;0;0
2019-12-05 04:08:01;-2.53;1023.69;8;0;0
2019-12-05 04:08:31;-2.55;1023.68;7;0;0
2019-12-05 04:09:01;-2.51;1023.68;8;0;0
2019-12-05 04:09:32;-2.3;1023.7;7;0;0
2019-12-05 04:10:01;-2.39;1023.71;7;0;0
2019-12-05 04:10:31;-2.4;1023.71;7;0;0
2019-12-05 04:11:01;-2.33;1023.68;7;0;0
2019-12-05 04:11:31;-2.3;1023.73;8;0;0
2019-12-05 04:12:01;-2.37;1023.74;7;0;0
2019-12-05 04:12:31;-2.38;1023.74;7;0;0
2019-12-05 04:13:01;-2.5;1023.75;8;0;0
2019-12-05 04:13:31;-2.54;1023.79;8;0;0
2019-12-05 04:14:02;-2.59;1023.77;7;0;0
2019-12-05 04:14:31;-2.45;1023.77;8;0;0
2019-12-05 04:15:01;-2.33;1023.78;8;0;0
2019-12-05 04:15:31;-2.45;1023.77;8;0;0
2019-12-05 04:16:01;-2.43;1023.83;8;0;0
2019-12-05 04:16:31;-2.52;1023.81;7;0;0
2019-12-05 04:17:01;-2.46;1023.75;7;0;0
2019-12-05 04:17:32;-2.4;1023.75;7;0;0
2019-12-05 04:18:02;-2.39;1023.75;7;0;0
2019-12-05 04:18:31;-2.47;1023.78;7;0;0
2019-12-05 04:19:01;-2.38;1023.76;8;0;0
2019-12-05 04:19:31;-2.51;1023.8;6;0;0
2019-12-05 04:20:01;-2.51;1023.78;7;0;0
2019-12-05 04:20:31;-2.47;1023.79;6;0;0
2019-12-05 04:21:01;-2.47;1023.73;6;0;0
2019-12-05 04:21:31;-2.44;1023.73;7;0;0
2019-12-05 04:22:01;-2.51;1023.75;7;0;0
2019-12-05 04:22:31;-2.44;1023.72;7;0;0
2019-12-05 04:23:01;-2.44;1023.7;7;0;0
2019-12-05 04:23:31;-2.49;1023.68;7;0;0
2019-12-05 04:24:01;-2.5;1023.62;8;0;0
2019-12-05 04:24:31;-2.44;1023.65;8;0;0
2019-12-05 04:25:01;-2.35;1023.7;7;0;0
2019-12-05 04:25:31;-2.35;1023.72;8;0;0
2019-12-05 04:26:01;-2.4;1023.76;8;0;0
2019-12-05 04:26:31;-2.52;1023.76;7;0;0
2019-12-05 04:27:01;-2.52;1023.7;8;0;0
2019-12-05 04:27:32;-2.44;1023.71;8;0;0
2019-12-05 04:28:01;-2.35;1023.72;8;0;0
2019-12-05 04:28:31;-2.33;1023.7;7;0;0
2019-12-05 04:29:01;-2.36;1023.71;8;0;0
2019-12-05 04:29:31;-2.39;1023.73;8;0;0
2019-12-05 04:30:01;-2.37;1023.71;9;0;0
2019-12-05 04:30:31;-2.34;1023.72;8;0;0
2019-12-05 04:31:01;-2.59;1023.69;8;0;0
2019-12-05 04:31:31;-2.6;1023.68;7;0;0
2019-12-05 04:32:01;-2.68;1023.66;8;0;0
2019-12-05 04:32:31;-2.5;1023.65;6;0;0
2019-12-05 04:33:01;-2.57;1023.64;7;0;0
2019-12-05 04:33:31;-2.47;1023.71;8;0;0
2019-12-05 04:34:01;-2.32;1023.72;7;0;0
2019-12-05 04:34:31;-2.4;1023.7;8;0;0
2019-12-05 04:35:01;-2.44;1023.71;7;0;0
2019-12-05 04:35:31;-2.46;1023.7;7;0;0
2019-12-05 04:36:01;-2.5;1023.69;7;0;0
2019-12-05 04:36:32;-2.44;1023.73;8;0;0
2019-12-05 04:37:01;-2.45;1023.71;8;0;0
2019-12-05 04:37:31;-2.59;1023.72;8;0;0
2019-12-05 04:38:01;-2.55;1023.71;7;0;0
2019-12-05 04:38:31;-2.47;1023.73;7;0;0
2019-12-05 04:39:01;-2.39;1023.7;7;0;0
2019-12-05 04:39:31;-2.46;1023.67;8;0;0
2019-12-05 04:40:01;-2.42;1023.69;7;0;0
2019-12-05 04:40:31;-2.27;1023.67;7;0;0
2019-12-05 04:41:01;-2.52;1023.62;7;0;0
2019-12-05 04:41:31;-2.52;1023.61;8;0;0
2019-12-05 04:42:01;-2.6;1023.59;8;0;0
2019-12-05 04:42:31;-2.64;1023.57;7;0;0
2019-12-05 04:43:01;-2.57;1023.63;8;0;0
2019-12-05 04:43:31;-2.54;1023.64;7;0;0
2019-12-05 04:44:01;-2.58;1023.64;7;0;0
2019-12-05 04:44:31;-2.63;1023.64;9;0;0
2019-12-05 04:45:02;-2.68;1023.65;8;0;0
2019-12-05 04:45:32;-2.63;1023.67;8;0;0
2019-12-05 04:46:01;-2.58;1023.67;8;0;0
2019-12-05 04:46:31;-2.57;1023.65;7;0;0
2019-12-05 04:47:01;-2.63;1023.66;8;0;0
2019-12-05 04:47:31;-2.63;1023.67;8;0;0
2019-12-05 04:48:01;-2.56;1023.66;8;0;0
2019-12-05 04:48:46;0;0;0;0;0
2019-12-05 04:49:02;-2.62;1023.73;7;0;0
2019-12-05 04:49:32;-2.67;1023.7;7;0;0
2019-12-05 04:50:01;-2.68;1023.67;9;0;0
2019-12-05 04:50:31;-2.63;1023.7;8;0;0
2019-12-05 04:51:01;-2.65;1023.69;6;0;0
2019-12-05 04:51:31;-2.68;1023.67;8;0;0
2019-12-05 04:52:01;-2.81;1023.71;9;0;0
2019-12-05 04:52:31;-2.76;1023.69;8;0;0
2019-12-05 04:53:01;-2.55;1023.65;8;0;0
2019-12-05 04:53:31;-2.54;1023.65;7;0;0
2019-12-05 04:54:02;-2.46;1023.61;7;0;0
2019-12-05 04:54:31;-2.55;1023.58;8;0;0
2019-12-05 04:55:01;-2.49;1023.6;7;0;0
2019-12-05 04:55:31;-2.63;1023.55;8;0;0
2019-12-05 04:56:01;-2.5;1023.55;7;0;0
2019-12-05 04:56:31;-2.53;1023.54;8;0;0
2019-12-05 04:57:01;-2.56;1023.57;6;0;0
2019-12-05 04:57:31;-2.67;1023.68;7;0;0
2019-12-05 04:58:01;-2.61;1023.66;7;0;0
2019-12-05 04:58:32;-2.54;1023.7;8;0;0
2019-12-05 04:59:01;-2.61;1023.71;8;0;0
2019-12-05 04:59:31;-2.62;1023.77;7;0;0
2019-12-05 05:00:02;-2.65;1023.78;8;0;0
2019-12-05 05:00:31;-2.73;1023.78;7;0;0